Flag for China Weather past 2 weeks in Changchun, Jilin, China

Now
21 °F

Clear.


Feels Like: 10 °F
Forecast: 25 / 38 °F
Wind: 10 mph from South

Location: Changchun Airport

Current Time: Mar 6, 2015 at 3:53:13 AM

Latest Report: Mar 6, 2015 at 3:00 AM


Visibility: 10 mi

Pressure: 30.09 "Hg

Humidity: 54%

Dew point: 7 °F

Location of ChangchunLocation

Historic Weather in Changchun — Graph

°F

Changchun temperature yesterday

Maximum temperature yesterday: 32 °F (at 3:00 PM)
Minimum temperature yesterday: 3 °F (at 5:00 AM)
Average temperature yesterday: 19 °F

Past Weeks' High & Low Weather Summary

 TemperatureHumidityPressure
High41 °F (Feb 20, 2:00 PM)100% (Feb 21, 7:00 AM)30.48 "Hg (Feb 21, 7:00 AM)
Low-4 °F (Feb 19, 6:00 AM)28% (Feb 20, 2:00 PM)29.71 "Hg (Feb 22, 11:00 AM)
Average20 °F66%30.08 "Hg
* Reported Feb 19 3:00 AM — Mar 6 3:00 AM, Changchun, Weather by CustomWeather, © 2015

Note: Actual official high and low records may vary slightly from our data, if they occured in-between our weather recording intervals... More about our weather records

Advertising

Changchun weather history for previous 24 hours

 ConditionsComfort  
Time TempWeatherWind HumidityBarometerVisibility
3:00 AM
Fri, Mar 6
21 °FClear.10 mph54%30.09 "Hg10 mi
2:00 AM21 °FClear.10 mph54%30.12 "Hg10 mi
1:00 AM21 °FClear.10 mph49%30.12 "Hg10 mi
12:00 AM21 °FClear.10 mph49%30.12 "Hg10 mi
11:00 PM
Thu, Mar 5
21 °FClear.8 mph49%30.15 "Hg10 mi
10:00 PM21 °FClear.8 mph49%30.15 "Hg10 mi
9:00 PM23 °FClear.10 mph50%30.18 "Hg10 mi
8:00 PM23 °FClear.13 mph50%30.18 "Hg10 mi
7:00 PM25 °FClear.13 mph46%30.18 "Hg10 mi
6:00 PM27 °FClear.10 mph46%30.18 "Hg10 mi
5:00 PM28 °FSunny.8 mph43%30.21 "Hg10 mi
4:00 PM30 °FSunny.13 mph40%30.21 "Hg10 mi
3:00 PM32 °FSunny.13 mph37%30.21 "Hg10 mi
2:00 PM30 °FPassing clouds.10 mph43%30.24 "HgN/A
1:00 PM30 °FSunny.13 mph40%30.27 "Hg10 mi
12:00 PM28 °FSunny.10 mph43%30.30 "Hg10 mi
11:00 AM25 °FSunny.10 mph59%30.30 "Hg10 mi
10:00 AM19 °FClear.8 mph68%30.33 "Hg5 mi
9:00 AM16 °FClear.8 mph67%30.33 "Hg4 mi
8:00 AM10 °FClear.6 mph79%30.33 "Hg4 mi
6:00 AM3 °FClear.3 mph78%30.33 "Hg4 mi
5:00 AM3 °FClear.6 mph78%30.33 "Hg10 mi
4:00 AM5 °FClear.3 mph78%30.33 "Hg10 mi
3:00 AM7 °FClear.3 mph72%30.33 "Hg10 mi
Weather by CustomWeather, © 2015

See weather overviewHow to use our weather pages